Regional Weather Roundup
Issued by NWS Newport/Morehead, NC

Current Version | Previous Version | Graphics & Text | Print | Product List | Glossary On
Versions: 1 2 3 4 5 6 7 8 9 10 11 12 13 14 15 16 17 18 19 20 21 22 23 24 25 26 27 28 29 30 31 32 33 34 35 36 37 38 39 40 41 42 43 44 45 46 47 48 49 50
278 ASUS42 KMHX 201513 RWRMHX WEATHER ROUNDUP FOR EASTERN NORTH CAROLINA NATIONAL WEATHER SERVICE NEWPORT/MOREHEAD CITY NC 1000 AM EST FRI JAN 20 2017 NOTE: "FAIR" INDICATES FEW OR NO CLOUDS BELOW 12,000 FEET WITH NO SIGNIFICANT WEATHER AND/OR OBSTRUCTIONS TO VISIBILITY NCZ015>017-031-032-045>047-102-103-201600- NORTH COAST CITY SKY/WX TMP DP RH WIND PRES REMARKS EDENTON CLOUDY 52 45 76 CALM 29.98F ELIZABETH CITY CLOUDY 50 45 83 E9 29.98F KITTY HAWK NOT AVBL MANTEO CLOUDY 52 47 82 SE5 30.00S $$ NCZ045>047-081-094-103-104-201600- CENTRAL COAST CITY SKY/WX TMP DP RH WIND PRES REMARKS FRISCO PTSUNNY 57 47 69 E5 29.98S $$ NCZ095-097-098-100-101-201600- SOUTHERN COAST CITY SKY/WX TMP DP RH WIND PRES REMARKS BEAUFORT CLOUDY 61 56 83 E6 29.94F CEDAR ISLAND NOT AVBL JACKSONVILLE CLOUDY 56 52 86 E5 29.93S PINEY ISLAND MOSUNNY N/A N/A N/A E9 29.95F WILMINGTON MOSUNNY 65 57 75 E8 29.93R $$ NCZ011>013-027>030-043-044-078>080-089-090>093-098-201600- COASTAL PLAIN CITY SKY/WX TMP DP RH WIND PRES REMARKS AHOSKIE N/A 46 42 88 CALM 29.96S CLINTON CLOUDY 53 50 90 CALM 29.93S ELIZABETHTOWN CLOUDY 57 53 85 CALM 29.93S GOLDSBORO LGT RAIN 52 51 99 CALM 29.92S GREENVILLE PTSUNNY 50 46 87 SE6 29.96F HAVELOCK CLOUDY 56 51 84 E6 29.95F KENANSVILLE CLOUDY 52 48 87 CALM 29.93F KINSTON CLOUDY 52 46 82 SE5 29.95S NEW BERN CLOUDY 53 46 77 E6 29.95F RICHLANDS CLOUDY 54 50 86 E3 29.94S ROCKY MOUNT LGT RAIN 48 47 96 CALM 29.94S WASHINGTON CLOUDY 50 44 82 E5 N/A WHITEVILLE CLOUDY 59 53 81 CALM 29.92S $$ AMZ130-135-150-152-154-156-158-170-250-252-270-ANZ085-086-088-633-658-670-201600- MARINE OBSERVATIONS STATION/POSITION TIME TEMP WIND PRES WAVE SWELL AIR SEA DIR/SP/G HT/PER HT/PER (UTC) (F) (DEG/KT/KT) (MB) (FT/S) (FT/S) CHESAPEAKE LIGHT NOT AVBL 64 E VA BEACH 1450 53 56 140/ 2/ 2 1015.9 6/11 5/11 DUCK 1436 47 45 110/ 6/ 6 1014.9 2 E DUCK 1500 45 N/A 4/12 3/12 OREGON INLET 1436 49 49 60/ 3/ 4 1015.7 13E OREGON INLT NOT AVBL HATTERAS CG 1436 53 54 50/ 4/ 6 1015.3 DIAMOND BUOY 1450 65 76 150/ 4/ 8 1015.5 5/12 5/12 CAPE LOOKOUT 1500 66 130/ 8/ 8 1013.4 BEAUFORT LAB 1436 59 50 70/ 4/ 5 1013.0 30 SE NEW RVR IN 1408 64 64 100/ 4/ 8 1013.9 30 SE NEW RVR IN 1443 64 N/A 4/12 3/12 27 SE WRIGHTSVLE 1408 71 71 130/ 12/ 17 1012.5 5 SE WRIGHTSVLE NOT AVBL 225 S CAPE HAT 1450 69 71 140/ 10/ 12 1015.9 5/11 5/11 41 SE CHARLESTON 1350 71 71 220/ 8/ 8 1012.8 2/ 9 2/ 9 $$

USA.gov is the U.S. government's official web portal to all federal, state and local government web resources and services.